Wind_Speed
21 21 20 20 20 20 20 20 19 19 19 19 17 14 10 9 7 7 2 2 4 7 7 7 8 5 3 4 3 2 3 3 4 5 2 2 3 5 9 11 4 3 7 6 22
26 25 24 23 22 22 21 21 20 19 19 18 17 13 9 9 9 3 2 3 5 6 6 4 8 8 4 8 4 3 2 4 2 3 2 7 7 4 3 9 6 9 7 15 21
30 28 26 25 24 23 22 21 21 19 18 18 16 12 8 8 3 2 2 2 1 5 5 4 5 7 5 6 5 4 5 4 10 9 7 5 8 7 5 3 12 18 22 23 22
26 24 24 24 25 24 24 22 21 19 17 16 14 10 5 5 2 2 2 2 2 4 4 9 7 5 3 3 9 3 7 10 12 5 6 2 8 11 4 9 10 10 20 24 24
21 21 21 21 21 22 22 21 20 18 16 14 12 7 4 2 3 3 1 3 3 2 6 7 8 7 3 5 10 1 3 12 11 10 6 8 9 8 17 16 13 8 25 24 24
20 20 19 19 19 19 18 18 17 16 14 11 8 4 2 1 1 4 4 3 3 1 3 5 5 8 7 6 3 8 7 12 16 18 11 7 10 12 8 14 18 15 25 26 24
20 19 18 18 18 18 17 15 14 12 10 7 4 3 4 6 3 6 3 4 4 3 2 4 6 5 10 6 9 11 6 8 14 15 7 11 6 7 27 24 26 18 24 26 25
22 20 19 18 18 17 14 12 10 7 4 3 2 2 3 2 7 7 4 5 1 2 4 6 6 7 4 6 7 3 2 3 8 6 4 9 8 11 19 10 29 32 25 30 29
23 21 19 17 17 15 12 8 6 2 3 5 5 1 3 1 2 4 5 5 8 3 6 6 4 3 5 1 5 4 2 2 7 4 4 4 7 12 12 21 13 24 32 31 34
23 21 19 16 16 15 10 4 6 7 7 6 3 2 1 2 4 4 4 9 3 4 5 6 3 1 5 4 2 4 4 6 6 5 3 3 10 10 23 22 23 24 27 24 22
23 21 18 14 13 14 9 4 2 3 2 0 1 3 1 5 5 2 3 3 4 5 2 6 3 4 6 4 4 1 3 5 8 1 3 5 8 13 19 13 13 15 22 25 19
23 22 16 10 10 12 14 9 9 5 5 1 3 7 7 3 1 5 5 3 4 4 2 3 5 7 4 1 2 2 4 7 7 5 5 6 9 7 10 9 16 15 5 21 21
22 21 15 5 8 9 11 13 6 6 2 2 0 0 1 5 3 8 4 2 4 3 6 5 5 5 0 3 3 3 3 2 2 6 5 3 7 8 6 24 31 30 26 26 16
20 19 12 3 3 3 4 9 5 2 3 1 1 1 3 2 2 4 4 1 3 3 3 4 2 2 1 3 2 4 1 2 3 5 3 5 2 6 4 9 10 27 24 24 25
19 16 9 7 2 5 9 7 2 1 4 1 2 1 1 1 1 1 4 3 3 5 3 7 3 1 2 3 2 4 3 3 1 1 3 4 5 3 4 6 7 14 25 22 24
17 11 10 4 3 5 10 2 1 3 3 2 2 1 1 3 2 2 0 3 4 3 3 8 2 3 5 2 2 3 4 4 2 3 2 6 5 4 2 4 3 10 25 27 25
12 8 13 10 9 6 3 1 4 5 3 6 3 5 6 3 3 4 3 1 1 4 4 6 2 1 1 3 2 3 4 3 3 3 5 2 4 6 5 6 8 11 27 28 28
9 11 16 13 10 6 4 3 7 3 4 4 4 8 3 4 2 1 3 4 8 5 2 2 3 2 1 1 2 3 5 4 2 2 4 3 4 4 6 17 20 26 27 26 28
8 6 13 13 6 5 4 6 2 4 5 7 9 2 3 2 1 2 5 6 5 8 3 6 3 2 2 2 2 3 0 3 1 2 2 2 4 6 3 9 15 21 27 27 27
7 5 14 11 3 5 4 5 3 5 6 4 5 6 5 6 5 6 3 6 7 6 5 4 4 3 2 2 2 3 2 3 3 1 3 2 4 4 4 8 5 12 23 24 24
6 4 17 6 3 5 4 3 3 11 12 4 4 4 5 5 5 5 5 3 7 7 9 5 1 6 3 2 4 1 2 1 2 4 3 1 3 7 12 7 7 14 23 24 25
6 3 18 6 4 5 3 2 5 9 15 7 3 5 4 6 4 6 3 2 9 6 3 3 1 4 6 1 1 2 1 3 4 5 1 4 2 7 5 10 20 19 21 21 23
5 7 17 5 4 4 4 4 6 8 8 6 6 6 6 4 4 2 4 1 7 4 2 4 2 3 4 5 6 5 3 4 0 2 2 3 4 3 12 16 18 19 18 19 20
5 4 10 13 16 3 5 5 3 14 8 11 6 8 5 4 4 3 5 9 7 3 8 1 3 5 5 2 5 5 5 3 3 1 2 4 6 9 10 9 17 19 13 14 18
6 4 4 3 9 10 5 5 11 7 12 17 6 10 6 4 7 4 8 6 11 9 6 4 3 4 6 7 4 5 6 7 5 6 4 3 6 7 6 6 17 23 20 18 22
6 5 6 8 10 9 10 8 9 6 5 4 5 8 7 4 3 5 7 3 4 7 4 7 4 6 5 9 10 11 11 12 11 8 9 6 2 10 14 17 20 21 24 23 23
10 9 3 9 8 5 3 5 7 8 6 13 10 5 4 7 17 19 20 19 16 4 4 3 1 4 5 6 7 2 11 9 14 12 3 6 3 9 9 15 22 13 25 25 23
Wind_Direction
341 335 329 325 323 323 326 330 332 337 340 341 339 333 326 326 323 307 217 357 332 324 344 358 355 315 304 272 257 282 49 269 270 318 306 74 67 51 103 128 109 125 160 180 172
327 324 320 317 314 314 316 319 323 328 333 337 336 331 324 325 326 276 248 260 304 310 327 16 359 21 324 276 199 135 130 250 265 310 60 19 31 123 104 123 111 114 134 153 166
315 312 311 309 308 307 308 310 314 319 325 331 332 328 319 326 354 46 121 237 269 325 350 41 341 316 286 312 232 219 222 258 297 344 53 26 351 356 150 192 189 171 166 170 175
321 318 312 309 305 303 303 304 306 310 317 324 326 324 304 317 137 84 91 192 284 346 46 344 316 294 234 288 289 202 275 291 303 315 4 10 319 329 285 225 254 235 206 180 184
335 333 331 323 315 309 306 303 302 302 307 315 318 315 289 276 258 231 251 258 287 64 23 352 347 352 358 315 332 316 304 310 311 306 274 300 289 269 284 277 278 229 195 195 194
340 340 339 336 332 326 319 311 302 297 300 304 307 290 232 278 290 269 284 230 218 111 1 325 348 336 301 295 334 304 300 303 296 290 273 226 252 251 259 265 259 214 198 201 202
342 341 339 338 337 333 328 319 305 297 294 290 285 236 235 222 193 295 309 176 206 208 235 359 306 325 325 315 315 297 306 308 264 254 233 233 315 230 254 253 256 243 207 208 212
342 341 341 339 342 337 335 323 318 304 286 244 206 216 253 252 262 278 225 191 297 255 308 291 300 295 249 284 319 273 44 344 295 175 225 154 270 264 282 291 244 238 235 215 220
341 342 342 342 345 342 342 341 1 27 124 138 121 105 337 345 164 182 210 211 243 225 297 323 305 268 300 65 350 349 278 281 312 161 136 151 254 263 294 306 278 243 237 239 226
339 342 344 345 348 355 353 50 59 92 106 127 136 310 289 84 274 281 202 207 190 268 265 251 228 41 355 78 274 307 338 325 299 295 170 224 264 275 275 282 279 268 255 241 239
340 343 348 349 355 3 18 135 94 74 68 359 265 300 330 298 278 131 86 153 205 257 234 214 73 249 244 206 198 306 329 303 284 220 277 253 281 287 297 296 304 271 254 228 229
340 345 351 353 17 26 33 69 39 340 319 172 300 257 266 310 290 173 184 211 198 234 275 333 258 235 237 243 39 341 301 288 291 332 16 299 310 326 15 15 35 27 223 232 226
343 349 354 13 49 15 18 51 26 345 315 334 350 89 184 225 295 164 189 298 237 275 288 186 252 158 127 321 319 281 235 281 276 331 331 22 19 10 350 43 47 47 55 55 60
349 355 2 34 70 22 29 10 28 102 73 259 144 40 355 128 290 173 219 276 304 252 266 255 181 140 4 284 231 278 357 18 7 48 280 75 207 340 344 32 29 40 42 43 42
353 1 22 42 47 56 352 358 73 82 61 77 107 54 105 232 275 265 247 209 246 271 36 258 176 219 283 266 0 239 327 273 235 311 14 328 95 244 17 38 19 29 39 45 39
359 18 28 47 11 1 342 3 98 44 96 57 131 160 169 235 226 154 24 221 269 302 234 232 181 185 208 280 224 321 331 341 104 103 358 239 124 252 188 137 41 42 52 47 43
13 40 36 30 356 345 359 39 47 73 324 349 342 354 336 211 226 174 191 289 5 356 347 327 221 76 77 339 9 42 44 359 27 19 224 207 58 216 179 131 122 83 60 49 46
31 48 27 13 14 14 13 53 71 59 343 1 357 305 230 29 5 237 358 17 21 20 325 319 328 135 154 196 195 234 142 148 227 191 266 8 168 211 160 98 86 78 69 56 48
14 45 16 3 29 32 30 51 69 6 339 329 313 330 40 31 275 340 68 11 37 22 27 2 322 323 45 359 97 325 6 188 195 296 63 213 31 18 142 77 70 71 67 56 49
27 60 10 360 35 50 71 113 93 40 335 331 1 27 28 348 34 24 69 348 340 354 27 297 310 259 285 359 288 187 252 42 11 277 282 291 179 203 194 87 69 64 68 59 51
20 41 0 351 32 43 97 91 76 40 11 23 2 345 9 0 336 353 2 359 346 321 338 16 59 294 12 211 218 44 312 216 156 154 175 310 13 341 104 122 94 71 68 60 51
36 48 9 7 57 61 65 59 39 10 15 358 38 20 13 350 324 18 100 66 7 355 10 50 276 271 240 258 187 176 14 117 119 303 328 143 34 332 81 90 82 74 67 60 53
38 349 16 21 63 349 106 71 67 24 16 7 22 3 11 312 345 54 108 93 35 51 47 339 332 322 329 347 3 53 4 49 261 87 252 117 166 358 54 58 68 69 66 61 52
44 24 20 52 41 63 10 10 106 45 48 12 31 40 360 345 0 352 39 9 338 25 4 202 253 189 210 168 332 313 320 3 97 104 286 238 130 32 39 44 33 29 43 55 47
51 62 15 12 352 358 41 41 52 19 4 24 50 28 3 316 336 46 8 352 343 33 29 47 277 296 301 299 296 259 266 281 257 230 200 274 351 67 37 39 14 13 13 40 35
76 32 36 13 2 16 15 359 51 6 15 37 40 356 347 43 3 315 357 3 266 350 31 359 293 330 297 285 280 277 271 262 242 255 264 229 150 0 20 27 12 37 33 26 19
68 60 26 15 19 65 27 16 21 27 30 32 1 346 18 348 323 301 287 265 258 299 352 292 301 352 269 350 306 17 339 316 78 43 41 61 344 346 6 16 350 22 16 10 6
Height
1558 1555 1552 1550 1547 1545 1542 1540 1538 1535 1533 1530 1528 1525 1523 1522 1522 1521 1522 1523 1523 1522 1522 1521 1521 1521 1521 1521 1521 1521 1529 1533 1524 1517 1513 1507 1507 1507 1509 1512 1516 1517 1518 1518 1522
1555 1552 1549 1546 1544 1541 1539 1537 1535 1533 1531 1528 1526 1524 1522 1520 1519 1519 1521 1521 1522 1522 1522 1521 1520 1520 1520 1520 1520 1520 1530 1524 1516 1513 1513 1511 1509 1510 1511 1513 1517 1516 1518 1519 1521
1551 1547 1544 1541 1539 1537 1536 1534 1532 1530 1529 1526 1524 1522 1521 1520 1519 1519 1519 1521 1522 1522 1522 1521 1521 1521 1519 1518 1518 1518 1524 1515 1512 1511 1510 1511 1509 1510 1510 1513 1512 1513 1515 1517 1520
1545 1542 1539 1537 1534 1532 1531 1530 1529 1527 1526 1524 1522 1521 1520 1519 1523 1519 1519 1521 1521 1521 1521 1520 1520 1520 1519 1519 1516 1518 1513 1513 1511 1508 1508 1510 1510 1509 1510 1509 1510 1512 1512 1514 1517
1542 1539 1536 1533 1530 1528 1526 1525 1524 1524 1523 1522 1520 1519 1519 1519 1518 1518 1519 1520 1521 1521 1520 1520 1520 1519 1520 1518 1515 1513 1513 1511 1511 1509 1508 1508 1508 1509 1508 1508 1509 1510 1510 1512 1514
1540 1537 1534 1530 1527 1525 1522 1521 1519 1519 1519 1519 1518 1518 1519 1520 1518 1518 1518 1519 1520 1520 1520 1520 1520 1519 1518 1517 1516 1513 1511 1509 1507 1507 1507 1508 1508 1508 1506 1506 1506 1507 1507 1507 1509
1538 1535 1531 1528 1525 1522 1519 1517 1516 1516 1516 1516 1516 1517 1518 1518 1518 1518 1518 1519 1519 1520 1520 1519 1519 1520 1519 1516 1514 1511 1512 1508 1503 1502 1505 1505 1509 1506 1499 1503 1503 1505 1504 1504 1505
1537 1534 1530 1526 1523 1520 1516 1514 1513 1513 1513 1514 1515 1516 1516 1517 1517 1517 1517 1518 1519 1519 1519 1519 1518 1518 1517 1515 1513 1512 1513 1520 1500 1497 1502 1504 1516 1499 1497 1497 1496 1497 1499 1499 1500
1535 1532 1528 1524 1521 1518 1514 1512 1512 1511 1512 1514 1516 1517 1516 1517 1517 1517 1517 1518 1518 1519 1519 1518 1518 1517 1516 1519 1526 1518 1527 1517 1508 1498 1501 1504 1509 1495 1494 1493 1493 1492 1493 1494 1495
1533 1530 1527 1523 1520 1516 1513 1512 1512 1512 1513 1515 1516 1520 1517 1517 1516 1516 1516 1517 1518 1519 1518 1518 1517 1519 1520 1526 1539 1526 1523 1519 1517 1503 1502 1505 1506 1496 1492 1490 1487 1487 1486 1488 1490
1531 1528 1525 1522 1520 1516 1513 1512 1516 1516 1514 1515 1517 1517 1516 1516 1516 1516 1516 1517 1518 1519 1520 1516 1523 1527 1521 1516 1515 1514 1518 1523 1510 1503 1504 1505 1504 1494 1487 1485 1483 1480 1479 1482 1485
1529 1526 1523 1522 1520 1517 1516 1513 1519 1521 1516 1514 1515 1515 1516 1516 1516 1516 1517 1518 1518 1520 1517 1521 1525 1514 1511 1511 1511 1513 1518 1521 1509 1502 1503 1502 1504 1495 1490 1489 1485 1477 1477 1480 1483
1527 1524 1521 1520 1520 1519 1517 1519 1520 1519 1519 1515 1515 1515 1516 1517 1516 1516 1517 1516 1516 1518 1517 1523 1515 1509 1510 1512 1515 1514 1517 1515 1515 1509 1502 1504 1511 1506 1497 1490 1486 1485 1484 1483 1484
1526 1523 1520 1519 1522 1519 1519 1519 1519 1519 1523 1519 1516 1517 1517 1516 1517 1516 1516 1518 1515 1516 1513 1514 1509 1510 1511 1513 1512 1519 1510 1510 1512 1520 1530 1509 1536 1514 1504 1499 1494 1491 1488 1488 1487
1526 1522 1520 1518 1520 1519 1521 1519 1518 1519 1529 1518 1517 1518 1517 1518 1517 1516 1516 1516 1517 1516 1517 1518 1510 1511 1513 1511 1508 1513 1508 1510 1511 1518 1522 1515 1529 1513 1506 1507 1503 1496 1494 1492 1490
1525 1523 1521 1520 1520 1520 1519 1518 1518 1522 1528 1520 1517 1516 1518 1516 1515 1515 1516 1516 1515 1514 1512 1511 1507 1508 1509 1507 1507 1506 1508 1511 1513 1523 1537 1515 1518 1520 1512 1506 1504 1501 1498 1497 1494
1525 1523 1522 1521 1520 1519 1519 1519 1524 1532 1518 1528 1522 1518 1517 1516 1514 1514 1516 1518 1522 1524 1522 1511 1508 1507 1508 1510 1507 1510 1520 1535 1531 1540 1533 1502 1516 1517 1507 1504 1503 1503 1502 1502 1500
1526 1525 1523 1521 1520 1520 1518 1520 1533 1531 1532 1525 1522 1520 1520 1516 1515 1514 1517 1525 1521 1520 1526 1527 1522 1510 1508 1510 1513 1514 1519 1535 1530 1536 1525 1503 1522 1515 1502 1504 1505 1504 1504 1504 1503
1526 1525 1524 1523 1521 1520 1520 1536 1547 1539 1536 1533 1524 1522 1520 1517 1519 1517 1528 1534 1530 1528 1535 1533 1519 1509 1509 1508 1510 1513 1521 1513 1521 1519 1529 1518 1509 1504 1501 1508 1508 1507 1505 1506 1506
1528 1526 1526 1524 1522 1520 1521 1536 1541 1539 1537 1534 1536 1529 1532 1527 1524 1524 1530 1537 1535 1531 1529 1529 1533 1512 1511 1509 1509 1511 1512 1523 1528 1529 1525 1518 1516 1521 1510 1515 1513 1510 1509 1510 1509
1528 1527 1527 1524 1523 1522 1534 1539 1539 1540 1539 1537 1536 1535 1536 1536 1529 1527 1539 1541 1535 1531 1527 1531 1530 1523 1512 1514 1514 1517 1518 1515 1521 1528 1533 1536 1530 1513 1511 1515 1515 1513 1513 1513 1511
1530 1530 1528 1525 1526 1529 1539 1538 1541 1540 1539 1539 1537 1537 1538 1537 1533 1532 1538 1538 1536 1535 1535 1534 1535 1535 1520 1511 1507 1507 1511 1515 1533 1528 1529 1532 1542 1525 1520 1516 1514 1517 1517 1516 1514
1535 1536 1533 1528 1542 1542 1538 1541 1543 1543 1544 1544 1543 1543 1540 1539 1541 1533 1537 1539 1537 1535 1537 1536 1537 1540 1523 1520 1512 1515 1513 1516 1518 1524 1527 1535 1539 1528 1523 1519 1520 1519 1519 1518 1516
1538 1543 1539 1537 1543 1542 1546 1544 1546 1546 1546 1547 1547 1545 1543 1542 1539 1538 1540 1540 1539 1538 1537 1535 1536 1534 1538 1530 1527 1523 1518 1517 1522 1534 1531 1527 1524 1531 1526 1526 1524 1522 1521 1519 1516
1544 1551 1552 1554 1550 1549 1547 1549 1551 1553 1550 1551 1552 1554 1554 1549 1546 1545 1546 1543 1539 1540 1539 1540 1541 1533 1531 1528 1526 1524 1522 1518 1520 1521 1529 1520 1521 1533 1532 1530 1527 1524 1520 1519 1518
1549 1553 1554 1554 1553 1553 1554 1559 1557 1557 1556 1556 1559 1558 1555 1557 1559 1556 1554 1550 1546 1542 1543 1542 1543 1538 1534 1526 1522 1521 1517 1514 1514 1515 1515 1517 1524 1532 1532 1530 1526 1525 1523 1520 1518
1554 1555 1556 1559 1557 1558 1565 1564 1562 1562 1561 1561 1561 1560 1558 1558 1556 1553 1551 1549 1548 1549 1548 1549 1546 1546 1543 1532 1522 1524 1529 1517 1524 1526 1525 1534 1536 1532 1530 1528 1525 1524 1522 1520 1518